,,,PA_Meas_PMT16A,,PR_Meas_QMR101_102,,RH_Meas_QMH101,,SR_Meas_QMS101,,TA_Meas_QMH101,,GenWind,,GenWind,
date,time,status,PA,status,PR,status,RH,status,SR,status,TA,status,DirAvg,status,SpdAvg,
2010-03-12, 00:00:04,VALID,1008.61,VALID,0,VALID,95.2695,VALID,0.100563,VALID,23.585,VALID,6,VALID,0,
2010-03-12, 00:01:04,VALID,1008.62,VALID,0,VALID,95.2771,VALID,0.100563,VALID,23.6044,VALID,6,VALID,0,
2010-03-12, 00:02:04,VALID,1008.63,VALID,0,VALID,95.2771,VALID,0,VALID,23.6221,VALID,6,VALID,0,
2010-03-12, 00:03:04,VALID,1008.59,VALID,0,VALID,95.2542,VALID,0.100563,VALID,23.6823,VALID,6,VALID,0,
2010-03-12, 00:04:04,VALID,1008.62,VALID,0,VALID,95.2695,VALID,0.100563,VALID,23.7212,VALID,6,VALID,0,
2010-03-12, 00:05:04,VALID,1008.58,VALID,0,VALID,95.2923,VALID,0.100563,VALID,23.7212,VALID,6,VALID,0,
2010-03-12, 00:06:04,VALID,1008.58,VALID,0,VALID,95.2923,VALID,0.100563,VALID,23.7017,VALID,6,VALID,0,
2010-03-12, 00:07:04,VALID,1008.59,VALID,0,VALID,95.3,VALID,0.100563,VALID,23.7212,VALID,6,VALID,0,
2010-03-12, 00:08:04,VALID,1008.59,VALID,0,VALID,95.3076,VALID,0.100563,VALID,23.7212,VALID,6,VALID,0,
2010-03-12, 00:09:04,VALID,1008.56,VALID,0,VALID,95.3,VALID,0.100563,VALID,23.7212,VALID,6,VALID,0,
2010-03-12, 00:10:04,VALID,1008.54,VALID,0,VALID,95.2923,VALID,0.100563,VALID,23.6805,VALID,6,VALID,0,
2010-03-12, 00:11:04,VALID,1008.53,VALID,0,VALID,95.3,VALID,0.100563,VALID,23.6823,VALID,6,VALID,0,
2010-03-12, 00:12:04,VALID,1008.5,VALID,0,VALID,95.2923,VALID,0.100563,VALID,23.6823,VALID,6,VALID,0,
2010-03-12, 00:13:04,VALID,1008.48,VALID,0,VALID,95.2847,VALID,0,VALID,23.6841,VALID,6,VALID,0,
2010-03-12, 00:14:04,VALID,1008.47,VALID,0,VALID,95.2695,VALID,0,VALID,23.6628,VALID,6,VALID,0,
2010-03-12, 00:15:04,VALID,1008.5,VALID,0,VALID,95.2771,VALID,0.100563,VALID,23.6434,VALID,6,VALID,0,
2010-03-12, 00:16:04,VALID,1008.47,VALID,0,VALID,95.2771,VALID,0,VALID,23.6434,VALID,6,VALID,0,
2010-03-12, 00:17:04,VALID,1008.44,VALID,0,VALID,95.2695,VALID,0.100563,VALID,23.6628,VALID,6,VALID,0,
2010-03-12, 00:18:04,VALID,1008.43,VALID,0,VALID,95.2695,VALID,0,VALID,23.6434,VALID,6,VALID,0,
2010-03-12, 00:19:04,VALID,1008.43,VALID,0,VALID,95.2618,VALID,0.100563,VALID,23.6434,VALID,6,VALID,0,
2010-03-12, 00:20:04,VALID,1008.43,VALID,0,VALID,95.2618,VALID,0.100563,VALID,23.6239,VALID,6,VALID,0,
2010-03-12, 00:21:04,VALID,1008.41,VALID,0,VALID,95.2466,VALID,0.100563,VALID,23.6239,VALID,6,VALID,0,
2010-03-12, 00:22:04,VALID,1008.4,VALID,0,VALID,95.2161,VALID,0.100563,VALID,23.6239,VALID,6,VALID,0,
2010-03-12, 00:23:04,VALID,1008.4,VALID,0,VALID,95.2389,VALID,0.100563,VALID,23.6239,VALID,6,VALID,0,
2010-03-12, 00:24:04,VALID,1008.41,VALID,0,VALID,95.2466,VALID,0,VALID,23.6239,VALID,6,VALID,0,
2010-03-12, 00:25:04,VALID,1008.37,VALID,0,VALID,95.2466,VALID,0.100563,VALID,23.6239,VALID,6,VALID,0,
2010-03-12, 00:26:04,VALID,1008.37,VALID,0,VALID,95.2313,VALID,0.100563,VALID,23.6628,VALID,6,VALID,0,
2010-03-12, 00:27:04,VALID,1008.34,VALID,0,VALID,95.2389,VALID,0.100563,VALID,23.661,VALID,6,VALID,0,
2010-03-12, 00:28:04,VALID,1008.33,VALID,0,VALID,95.2618,VALID,0.100563,VALID,23.7017,VALID,6,VALID,0,
2010-03-12, 00:29:04,VALID,1008.31,VALID,0,VALID,95.2466,VALID,0.100563,VALID,23.7017,VALID,6,VALID,0,
2010-03-12, 00:30:04,VALID,1008.29,VALID,0,VALID,95.2466,VALID,0,VALID,23.7017,VALID,6,VALID,0,
2010-03-12, 00:31:04,VALID,1008.3,VALID,0,VALID,95.2542,VALID,0,VALID,23.7248,VALID,6,VALID,0,
2010-03-12, 00:32:04,VALID,1008.3,VALID,0,VALID,95.2466,VALID,0.100563,VALID,23.7017,VALID,6,VALID,0,
2010-03-12, 00:33:04,VALID,1008.27,VALID,0,VALID,95.2618,VALID,0,VALID,23.7017,VALID,6,VALID,0,
2010-03-12, 00:34:04,VALID,1008.25,VALID,0,VALID,95.2618,VALID,0,VALID,23.6805,VALID,6,VALID,0,
2010-03-12, 00:35:04,VALID,1008.24,VALID,0,VALID,95.2542,VALID,0,VALID,23.7212,VALID,6,VALID,0,
2010-03-12, 00:36:04,VALID,1008.2,VALID,0,VALID,95.2542,VALID,0,VALID,23.7601,VALID,6,VALID,0,
2010-03-12, 00:37:04,VALID,1008.2,VALID,0,VALID,95.2466,VALID,0,VALID,23.7796,VALID,6,VALID,0,
2010-03-12, 00:38:04,VALID,1008.21,VALID,0,VALID,95.2618,VALID,0,VALID,23.7796,VALID,6,VALID,0,
2010-03-12, 00:39:04,VALID,1008.2,VALID,0,VALID,95.2695,VALID,0,VALID,23.7796,VALID,6,VALID,0,
2010-03-12, 00:40:04,VALID,1008.17,VALID,0,VALID,95.2923,VALID,0.100563,VALID,23.7796,VALID,6,VALID,0,
2010-03-12, 00:41:04,VALID,1008.14,VALID,0,VALID,95.2923,VALID,0,VALID,23.7601,VALID,6,VALID,0,
2010-03-12, 00:42:04,VALID,1008.15,VALID,0,VALID,95.3,VALID,0,VALID,23.7601,VALID,6,VALID,0,
2010-03-12, 00:43:04,VALID,1008.12,VALID,0,VALID,95.2847,VALID,0,VALID,23.7601,VALID,6,VALID,0,
2010-03-12, 00:44:04,VALID,1008.12,VALID,0,VALID,95.3,VALID,0,VALID,23.7814,VALID,6,VALID,0,
2010-03-12, 00:45:04,VALID,1008.1,VALID,0,VALID,95.3,VALID,0.100563,VALID,23.7796,VALID,5,VALID,0,
2010-03-12, 00:46:04,VALID,1008.08,VALID,0,VALID,95.2695,VALID,0,VALID,23.7796,VALID,4,VALID,0,
2010-03-12, 00:47:04,VALID,1008.1,VALID,0,VALID,95.3,VALID,0,VALID,23.7796,VALID,4,VALID,0,
2010-03-12, 00:48:04,VALID,1008.07,VALID,0,VALID,95.2847,VALID,0,VALID,23.7991,VALID,4,VALID,0,
2010-03-12, 00:49:04,VALID,1008.05,VALID,0,VALID,95.2923,VALID,0,VALID,23.7991,VALID,4,VALID,0,
2010-03-12, 00:50:04,VALID,1008.05,VALID,0,VALID,95.2847,VALID,0,VALID,23.838,VALID,4,VALID,0,
2010-03-12, 00:51:04,VALID,1008.04,VALID,0,VALID,95.2771,VALID,0,VALID,23.8787,VALID,4,VALID,0,
2010-03-12, 00:52:04,VALID,1008,VALID,0,VALID,95.2923,VALID,0,VALID,23.8769,VALID,4,VALID,0,
2010-03-12, 00:53:04,VALID,1008,VALID,0,VALID,95.3,VALID,0,VALID,23.8982,VALID,4,VALID,0,
2010-03-12, 00:54:04,VALID,1007.96,VALID,0,VALID,95.3,VALID,0,VALID,23.8769,VALID,4,VALID,0,
2010-03-12, 00:55:04,VALID,1007.94,VALID,0,VALID,95.2847,VALID,0,VALID,23.8769,VALID,4,VALID,0,
2010-03-12, 00:56:04,VALID,1007.9,VALID,0,VALID,95.3,VALID,0,VALID,23.9371,VALID,4,VALID,0,
2010-03-12, 00:57:04,VALID,1007.89,VALID,0,VALID,95.3,VALID,0,VALID,23.9353,VALID,4,VALID,0,
2010-03-12, 00:58:04,VALID,1007.88,VALID,0,VALID,95.2847,VALID,0,VALID,23.9159,VALID,4,VALID,0,
2010-03-12, 00:59:04,VALID,1007.87,VALID,0,VALID,95.3,VALID,0,VALID,23.9566,VALID,4,VALID,0,
2010-03-12, 01:00:04,VALID,1007.89,VALID,0,VALID,95.2695,VALID,0,VALID,23.9742,VALID,355,VALID,0,
2010-03-12, 01:01:04,VALID,1007.92,VALID,0,VALID,95.2542,VALID,0,VALID,24.1123,VALID,339,VALID,0,
2010-03-12, 01:02:04,VALID,1007.93,VALID,0,VALID,95.2695,VALID,0,VALID,24.1318,VALID,339,VALID,0,
2010-03-12, 01:03:04,VALID,1007.93,VALID,0,VALID,95.3076,VALID,0,VALID,24.1123,VALID,339,VALID,0,
2010-03-12, 01:04:04,VALID,1007.92,VALID,0,VALID,95.2923,VALID,0,VALID,24.0716,VALID,339,VALID,0,
2010-03-12, 01:05:04,VALID,1007.92,VALID,0,VALID,95.3152,VALID,0,VALID,24.0716,VALID,339,VALID,0,
2010-03-12, 01:06:04,VALID,1007.91,VALID,0,VALID,95.2847,VALID,0,VALID,24.091,VALID,339,VALID,0,
2010-03-12, 01:07:04,VALID,1007.88,VALID,0,VALID,95.2771,VALID,0,VALID,24.1494,VALID,339,VALID,0,
2010-03-12, 01:08:04,VALID,1007.9,VALID,0,VALID,95.2847,VALID,0,VALID,24.1707,VALID,339,VALID,0,
2010-03-12, 01:09:04,VALID,1007.91,VALID,0,VALID,95.2771,VALID,0,VALID,24.1884,VALID,326,VALID,0,
2010-03-12, 01:10:04,VALID,1007.92,VALID,0,VALID,95.2618,VALID,0,VALID,24.2662,VALID,299,VALID,0,
2010-03-12, 01:11:04,VALID,1007.94,VALID,0,VALID,95.2542,VALID,0,VALID,24.2857,VALID,299,VALID,0,
2010-03-12, 01:12:04,VALID,1007.92,VALID,0,VALID,95.2466,VALID,0.100563,VALID,24.2875,VALID,299,VALID,0,
2010-03-12, 01:13:04,VALID,1007.91,VALID,0,VALID,95.2466,VALID,0,VALID,24.2273,VALID,303,VALID,0,
2010-03-12, 01:14:04,VALID,1007.95,VALID,0,VALID,95.2466,VALID,0,VALID,24.2273,VALID,303,VALID,0,
2010-03-12, 01:15:04,VALID,1007.94,VALID,0,VALID,95.2084,VALID,0,VALID,24.2468,VALID,303,VALID,0,
2010-03-12, 01:16:04,VALID,1007.92,VALID,0,VALID,95.1779,VALID,0,VALID,24.2662,VALID,303,VALID,0,
2010-03-12, 01:17:04,VALID,1007.89,VALID,0,VALID,95.155,VALID,0.100563,VALID,24.2875,VALID,303,VALID,0,
2010-03-12, 01:18:04,VALID,1007.89,VALID,0,VALID,95.1474,VALID,0,VALID,24.2662,VALID,310,VALID,0,
2010-03-12, 01:19:04,VALID,1007.87,VALID,0,VALID,95.1321,VALID,0,VALID,24.2662,VALID,310,VALID,0,
2010-03-12, 01:20:04,VALID,1007.84,VALID,0,VALID,95.1016,VALID,0,VALID,24.2662,VALID,310,VALID,0,
2010-03-12, 01:21:04,VALID,1007.85,VALID,0,VALID,95.0787,VALID,0,VALID,24.2662,VALID,310,VALID,0,
2010-03-12, 01:22:04,VALID,1007.83,VALID,0,VALID,95.0711,VALID,0,VALID,24.2857,VALID,310,VALID,0,
2010-03-12, 01:23:04,VALID,1007.83,VALID,0,VALID,95.0635,VALID,0,VALID,24.3052,VALID,310,VALID,0,
2010-03-12, 01:24:04,VALID,1007.83,VALID,0,VALID,95.033,VALID,0,VALID,24.3246,VALID,310,VALID,0,
2010-03-12, 01:25:04,VALID,1007.79,VALID,0,VALID,95.0406,VALID,0.100563,VALID,24.3654,VALID,310,VALID,0,
2010-03-12, 01:26:04,VALID,1007.79,VALID,0,VALID,95.0101,VALID,0,VALID,24.3441,VALID,310,VALID,0,
2010-03-12, 01:27:04,VALID,1007.8,VALID,0,VALID,95.0177,VALID,0,VALID,24.3636,VALID,310,VALID,0,
2010-03-12, 01:28:04,VALID,1007.79,VALID,0,VALID,94.9948,VALID,0,VALID,24.383,VALID,310,VALID,0,
2010-03-12, 01:29:04,VALID,1007.78,VALID,0,VALID,95.0024,VALID,0.100563,VALID,24.4025,VALID,310,VALID,0,
2010-03-12, 01:30:04,VALID,1007.76,VALID,0,VALID,94.9719,VALID,0,VALID,24.4433,VALID,310,VALID,0,
2010-03-12, 01:31:04,VALID,1007.78,VALID,0,VALID,94.9796,VALID,0,VALID,24.5035,VALID,310,VALID,0,
2010-03-12, 01:32:04,VALID,1007.75,VALID,0,VALID,94.9643,VALID,0,VALID,24.523,VALID,310,VALID,0,
2010-03-12, 01:33:04,VALID,1007.74,VALID,0,VALID,94.949,VALID,0,VALID,24.562,VALID,310,VALID,0,
2010-03-12, 01:34:04,VALID,1007.72,VALID,0,VALID,94.888,VALID,0,VALID,24.5406,VALID,310,VALID,0,
2010-03-12, 01:35:04,VALID,1007.75,VALID,0,VALID,94.8499,VALID,0,VALID,24.5814,VALID,310,VALID,0,
2010-03-12, 01:36:04,VALID,1007.75,VALID,0,VALID,94.827,VALID,0,VALID,24.5601,VALID,310,VALID,0,
2010-03-12, 01:37:04,VALID,1007.72,VALID,0,VALID,94.7583,VALID,0,VALID,24.562,VALID,310,VALID,0,
2010-03-12, 01:38:04,VALID,1007.73,VALID,0,VALID,94.6973,VALID,0,VALID,24.5406,VALID,311,VALID,0,
2010-03-12, 01:39:04,VALID,1007.7,VALID,0,VALID,94.6363,VALID,0,VALID,24.5212,VALID,348,VALID,0.664063,
2010-03-12, 01:40:04,VALID,1007.69,VALID,0,VALID,94.5981,VALID,0,VALID,24.5017,VALID,359,VALID,0.860547,
2010-03-12, 01:41:04,VALID,1007.68,VALID,0,VALID,94.5829,VALID,0,VALID,24.5425,VALID,336,VALID,0.555078,
2010-03-12, 01:42:04,VALID,1007.68,VALID,0,VALID,94.56,VALID,0,VALID,24.5425,VALID,340,VALID,0.0761719,
2010-03-12, 01:43:04,VALID,1007.68,VALID,0,VALID,94.5829,VALID,0,VALID,24.562,VALID,340,VALID,0.232031,
2010-03-12, 01:44:04,VALID,1007.69,VALID,0,VALID,94.5905,VALID,0,VALID,24.5814,VALID,330,VALID,0.0261719,
2010-03-12, 01:45:04,VALID,1007.66,VALID,0,VALID,94.56,VALID,0,VALID,24.5796,VALID,293,VALID,0.192578,
2010-03-12, 01:46:04,VALID,1007.65,VALID,0,VALID,94.56,VALID,0.100563,VALID,24.5796,VALID,293,VALID,0,
2010-03-12, 01:47:04,VALID,1007.62,VALID,0,VALID,94.5066,VALID,0,VALID,24.5796,VALID,293,VALID,0,
2010-03-12, 01:48:04,VALID,1007.61,VALID,0,VALID,94.4684,VALID,0,VALID,24.5796,VALID,293,VALID,0,
2010-03-12, 01:49:04,VALID,1007.59,VALID,0,VALID,94.4303,VALID,0,VALID,24.5777,VALID,319,VALID,0,
2010-03-12, 01:50:04,VALID,1007.58,VALID,0,VALID,94.3464,VALID,0,VALID,24.638,VALID,327,VALID,0,
2010-03-12, 01:51:04,VALID,1007.53,VALID,0,VALID,94.3006,VALID,0,VALID,24.6574,VALID,327,VALID,0,
2010-03-12, 01:52:04,VALID,1007.49,VALID,0,VALID,94.2472,VALID,0,VALID,24.6769,VALID,327,VALID,0,
2010-03-12, 01:53:04,VALID,1007.48,VALID,0,VALID,94.1556,VALID,0,VALID,24.6964,VALID,327,VALID,0,
2010-03-12, 01:54:04,VALID,1007.47,VALID,0,VALID,94.0946,VALID,0,VALID,24.6964,VALID,328,VALID,0,
2010-03-12, 01:55:04,VALID,1007.45,VALID,0,VALID,93.9954,VALID,0,VALID,24.675,VALID,328,VALID,0,
2010-03-12, 01:56:04,VALID,1007.46,VALID,0,VALID,93.9039,VALID,0,VALID,24.7159,VALID,328,VALID,0,
2010-03-12, 01:57:04,VALID,1007.47,VALID,0,VALID,93.82,VALID,0,VALID,24.7159,VALID,328,VALID,0,
2010-03-12, 01:58:04,VALID,1007.45,VALID,0,VALID,93.7589,VALID,0,VALID,24.7159,VALID,328,VALID,0,
2010-03-12, 01:59:04,VALID,1007.44,VALID,0,VALID,93.6903,VALID,0,VALID,24.7353,VALID,328,VALID,0,
2010-03-12, 02:00:04,VALID,1007.46,VALID,0,VALID,93.5987,VALID,0.100563,VALID,24.7335,VALID,328,VALID,0,
2010-03-12, 02:01:04,VALID,1007.45,VALID,0,VALID,93.5377,VALID,0,VALID,24.7548,VALID,328,VALID,0,
2010-03-12, 02:02:04,VALID,1007.44,VALID,0,VALID,93.4614,VALID,0,VALID,24.7548,VALID,328,VALID,0,
2010-03-12, 02:03:04,VALID,1007.45,VALID,0,VALID,93.4309,VALID,0,VALID,24.7548,VALID,328,VALID,0,
2010-03-12, 02:04:04,VALID,1007.43,VALID,0,VALID,93.4309,VALID,0,VALID,24.7353,VALID,328,VALID,0,
2010-03-12, 02:05:04,VALID,1007.46,VALID,0,VALID,93.4462,VALID,0,VALID,24.6945,VALID,53,VALID,0,
2010-03-12, 02:06:04,VALID,1007.49,VALID,0,VALID,93.5072,VALID,0,VALID,24.6945,VALID,53,VALID,0,
2010-03-12, 02:07:04,VALID,1007.46,VALID,0,VALID,93.5682,VALID,0,VALID,24.6964,VALID,31,VALID,0,
2010-03-12, 02:08:04,VALID,1007.45,VALID,0,VALID,93.6521,VALID,0,VALID,24.7159,VALID,2,VALID,0,
2010-03-12, 02:09:04,VALID,1007.44,VALID,0,VALID,93.675,VALID,0,VALID,24.6964,VALID,349,VALID,0,
2010-03-12, 02:10:04,VALID,1007.44,VALID,0,VALID,93.7437,VALID,0,VALID,24.6945,VALID,333,VALID,0.495313,
2010-03-12, 02:11:04,VALID,1007.38,VALID,0,VALID,93.7666,VALID,0,VALID,24.7353,VALID,331,VALID,0.349609,
2010-03-12, 02:12:04,VALID,1007.37,VALID,0,VALID,93.7437,VALID,0,VALID,24.7353,VALID,348,VALID,0.143359,
2010-03-12, 02:13:04,VALID,1007.35,VALID,0,VALID,93.7132,VALID,0,VALID,24.714,VALID,348,VALID,0.0570313,
2010-03-12, 02:14:04,VALID,1007.34,VALID,0,VALID,93.6826,VALID,0,VALID,24.7548,VALID,348,VALID,0,
2010-03-12, 02:15:04,VALID,1007.33,VALID,0,VALID,93.6826,VALID,0,VALID,24.7353,VALID,348,VALID,0,
2010-03-12, 02:16:04,VALID,1007.32,VALID,0,VALID,93.7055,VALID,0,VALID,24.7548,VALID,347,VALID,0.192578,
2010-03-12, 02:17:04,VALID,1007.29,VALID,0,VALID,93.7055,VALID,0,VALID,24.7548,VALID,346,VALID,0.0921875,
2010-03-12, 02:18:04,VALID,1007.31,VALID,0,VALID,93.7208,VALID,0,VALID,24.7743,VALID,346,VALID,0.276172,
2010-03-12, 02:19:04,VALID,1007.31,VALID,0,VALID,93.7055,VALID,0,VALID,24.7724,VALID,346,VALID,0.277734,
2010-03-12, 02:20:04,VALID,1007.29,VALID,0,VALID,93.6674,VALID,0,VALID,24.7937,VALID,349,VALID,0.291016,
2010-03-12, 02:21:04,VALID,1007.31,VALID,0,VALID,93.6216,VALID,0,VALID,24.8113,VALID,351,VALID,0.767969,
2010-03-12, 02:22:04,VALID,1007.31,VALID,0,VALID,93.5148,VALID,0,VALID,24.8503,VALID,353,VALID,0.587109,
2010-03-12, 02:23:04,VALID,1007.34,VALID,0,VALID,93.4004,VALID,0,VALID,24.8522,VALID,359,VALID,0.49375,
2010-03-12, 02:24:04,VALID,1007.34,VALID,0,VALID,93.3241,VALID,0,VALID,24.8522,VALID,359,VALID,0.460156,
2010-03-12, 02:25:04,VALID,1007.33,VALID,0,VALID,93.2859,VALID,0.100563,VALID,24.8522,VALID,359,VALID,0.341797,
2010-03-12, 02:26:04,VALID,1007.33,VALID,0,VALID,93.2707,VALID,0,VALID,24.8327,VALID,357,VALID,0.591797,
2010-03-12, 02:27:04,VALID,1007.32,VALID,0,VALID,93.2936,VALID,0,VALID,24.8308,VALID,357,VALID,0.242969,
2010-03-12, 02:28:04,VALID,1007.29,VALID,0,VALID,93.3165,VALID,0,VALID,24.8522,VALID,357,VALID,0.654297,
2010-03-12, 02:29:04,VALID,1007.36,VALID,0,VALID,93.2707,VALID,0,VALID,24.8911,VALID,312,VALID,0.358594,
2010-03-12, 02:30:04,VALID,1007.42,VALID,0,VALID,93.1563,VALID,0,VALID,24.93,VALID,308,VALID,0.458203,
2010-03-12, 02:31:04,VALID,1007.46,VALID,0,VALID,93.0189,VALID,0,VALID,24.9495,VALID,315,VALID,1.00273,
2010-03-12, 02:32:04,VALID,1007.43,VALID,0,VALID,92.4697,VALID,0,VALID,24.93,VALID,354,VALID,2.51875,
2010-03-12, 02:33:04,VALID,1007.41,VALID,0,VALID,91.8136,VALID,0,VALID,24.8697,VALID,270,VALID,0.841797,
2010-03-12, 02:34:04,VALID,1007.43,VALID,0,VALID,91.1041,VALID,0,VALID,24.8716,VALID,351,VALID,1.75664,
2010-03-12, 02:35:04,VALID,1007.41,VALID,0,VALID,90.7074,VALID,0,VALID,24.8522,VALID,341,VALID,1.61953,
2010-03-12, 02:36:04,VALID,1007.41,VALID,0,VALID,90.6769,VALID,0,VALID,24.8132,VALID,307,VALID,2.01172,
2010-03-12, 02:37:04,VALID,1007.39,VALID,0,VALID,90.7226,VALID,0,VALID,24.7548,VALID,35,VALID,1.05469,
2010-03-12, 02:38:04,VALID,1007.41,VALID,0,VALID,90.7989,VALID,0,VALID,24.6361,VALID,24,VALID,1.66602,
2010-03-12, 02:39:04,VALID,1007.4,VALID,0.5,VALID,91.4016,VALID,0,VALID,24.5406,VALID,302,VALID,1.76172,
2010-03-12, 02:40:04,VALID,1007.36,VALID,0,VALID,91.9585,VALID,0,VALID,24.4433,VALID,292,VALID,1.70938,
2010-03-12, 02:41:04,VALID,1007.34,VALID,0.5,VALID,92.5078,VALID,0,VALID,24.3265,VALID,345,VALID,1.91523,
2010-03-12, 02:42:04,VALID,1007.35,VALID,0,VALID,92.9503,VALID,0,VALID,24.2291,VALID,266,VALID,1.23125,
2010-03-12, 02:43:04,VALID,1007.33,VALID,0.5,VALID,93.3394,VALID,0,VALID,24.1707,VALID,354,VALID,0.505469,
2010-03-12, 02:44:04,VALID,1007.31,VALID,0.5,VALID,93.614,VALID,0,VALID,24.1142,VALID,311,VALID,0.642187,
2010-03-12, 02:45:04,VALID,1007.29,VALID,0,VALID,93.881,VALID,0,VALID,24.0345,VALID,298,VALID,1.09805,
2010-03-12, 02:46:04,VALID,1007.25,VALID,0.5,VALID,94.0794,VALID,0,VALID,23.9955,VALID,354,VALID,0.748047,
2010-03-12, 02:47:04,VALID,1007.27,VALID,0,VALID,94.2472,VALID,0,VALID,23.9779,VALID,316,VALID,1.00742,
2010-03-12, 02:48:04,VALID,1007.25,VALID,0,VALID,94.415,VALID,0,VALID,23.9371,VALID,346,VALID,0.622266,
2010-03-12, 02:49:04,VALID,1007.26,VALID,0,VALID,94.5142,VALID,0,VALID,23.8964,VALID,21,VALID,0.275,
2010-03-12, 02:50:04,VALID,1007.19,VALID,0,VALID,94.621,VALID,0,VALID,23.8964,VALID,349,VALID,1.03359,
2010-03-12, 02:51:04,VALID,1007.25,VALID,0,VALID,94.6744,VALID,0,VALID,23.9195,VALID,347,VALID,0.698438,
2010-03-12, 02:52:04,VALID,1007.27,VALID,0.5,VALID,94.766,VALID,0,VALID,23.8982,VALID,312,VALID,1.02109,
2010-03-12, 02:53:04,VALID,1007.3,VALID,0,VALID,94.8041,VALID,0,VALID,23.8769,VALID,315,VALID,0.928516,
2010-03-12, 02:54:04,VALID,1007.3,VALID,0,VALID,94.8651,VALID,0,VALID,23.8593,VALID,293,VALID,0.489844,
2010-03-12, 02:55:04,VALID,1007.33,VALID,0,VALID,94.9262,VALID,0,VALID,23.8398,VALID,199,VALID,0.552734,
2010-03-12, 02:56:04,VALID,1007.29,VALID,0.5,VALID,94.9414,VALID,0,VALID,23.8398,VALID,307,VALID,0.957422,
2010-03-12, 02:57:04,VALID,1007.32,VALID,0,VALID,94.9796,VALID,0,VALID,23.8203,VALID,355,VALID,0.313281,
2010-03-12, 02:58:04,VALID,1007.31,VALID,0.5,VALID,95.0101,VALID,0,VALID,23.8009,VALID,319,VALID,1.34141,
2010-03-12, 02:59:04,VALID,1007.33,VALID,0,VALID,95.0406,VALID,0,VALID,23.7814,VALID,306,VALID,0.35,
2010-03-12, 03:00:04,VALID,1007.3,VALID,0,VALID,95.0482,VALID,0,VALID,23.7814,VALID,319,VALID,0.0421875,
2010-03-12, 03:01:04,VALID,1007.28,VALID,0.5,VALID,95.0787,VALID,0,VALID,23.7814,VALID,293,VALID,0.430078,
2010-03-12, 03:02:04,VALID,1007.31,VALID,0,VALID,95.1093,VALID,0,VALID,23.7814,VALID,13,VALID,0.553516,
2010-03-12, 03:03:04,VALID,1007.29,VALID,0,VALID,95.1398,VALID,0,VALID,23.7619,VALID,300,VALID,0.257031,
2010-03-12, 03:04:04,VALID,1007.25,VALID,0,VALID,95.1474,VALID,0,VALID,23.7601,VALID,347,VALID,0.555859,
2010-03-12, 03:05:04,VALID,1007.24,VALID,0,VALID,95.1703,VALID,0,VALID,23.7619,VALID,359,VALID,1.01758,
2010-03-12, 03:06:04,VALID,1007.22,VALID,0,VALID,95.2008,VALID,0,VALID,23.7619,VALID,208,VALID,0.655859,
2010-03-12, 03:07:04,VALID,1007.23,VALID,0,VALID,95.1932,VALID,0,VALID,23.7425,VALID,358,VALID,1.32109,
2010-03-12, 03:08:04,VALID,1007.23,VALID,0,VALID,95.2237,VALID,0,VALID,23.7017,VALID,359,VALID,0.849219,
2010-03-12, 03:09:04,VALID,1007.22,VALID,0,VALID,95.2389,VALID,0,VALID,23.723,VALID,354,VALID,0.505859,
2010-03-12, 03:10:04,VALID,1007.2,VALID,0,VALID,95.2542,VALID,0,VALID,23.723,VALID,353,VALID,1.50547,
2010-03-12, 03:11:04,VALID,1007.19,VALID,0,VALID,95.2771,VALID,0,VALID,23.6823,VALID,356,VALID,0.221094,
2010-03-12, 03:12:04,VALID,1007.19,VALID,0,VALID,95.2771,VALID,0,VALID,23.7035,VALID,341,VALID,0.358984,
2010-03-12, 03:13:04,VALID,1007.15,VALID,0,VALID,95.2847,VALID,0,VALID,23.6841,VALID,314,VALID,0.426953,
2010-03-12, 03:14:04,VALID,1007.12,VALID,0,VALID,95.3076,VALID,0,VALID,23.7035,VALID,351,VALID,0.172266,
2010-03-12, 03:15:04,VALID,1007.06,VALID,0,VALID,95.3229,VALID,0,VALID,23.7035,VALID,351,VALID,1.09531,
2010-03-12, 03:16:04,VALID,1007.07,VALID,0,VALID,95.3229,VALID,0,VALID,23.6628,VALID,349,VALID,0.978125,
2010-03-12, 03:17:04,VALID,1007.06,VALID,0,VALID,95.3305,VALID,0,VALID,23.6841,VALID,352,VALID,0.432422,
2010-03-12, 03:18:04,VALID,1007.05,VALID,0.5,VALID,95.3534,VALID,0,VALID,23.6841,VALID,315,VALID,0.725,
2010-03-12, 03:19:04,VALID,1007.03,VALID,0,VALID,95.3305,VALID,0,VALID,23.6628,VALID,325,VALID,0.271484,
2010-03-12, 03:20:04,VALID,1007.02,VALID,0,VALID,95.3534,VALID,0,VALID,23.6646,VALID,333,VALID,0.455078,
2010-03-12, 03:21:04,VALID,1007.05,VALID,0,VALID,95.3763,VALID,0,VALID,23.6841,VALID,352,VALID,1.25781,
2010-03-12, 03:22:04,VALID,1007.08,VALID,0,VALID,95.3763,VALID,0,VALID,23.6841,VALID,1,VALID,0.53125,
2010-03-12, 03:23:04,VALID,1007.07,VALID,0,VALID,95.3686,VALID,0,VALID,23.7035,VALID,343,VALID,0.921094,
2010-03-12, 03:24:04,VALID,1007.08,VALID,0,VALID,95.3763,VALID,0,VALID,23.7248,VALID,352,VALID,1.03008,
2010-03-12, 03:25:04,VALID,1007.11,VALID,0,VALID,95.3839,VALID,0,VALID,23.7017,VALID,12,VALID,0.526172,
2010-03-12, 03:26:04,VALID,1007.05,VALID,0,VALID,95.3763,VALID,0,VALID,23.7443,VALID,313,VALID,0.3625,
2010-03-12, 03:27:04,VALID,1007.08,VALID,0,VALID,95.3991,VALID,0,VALID,23.7425,VALID,352,VALID,0.236328,
2010-03-12, 03:28:04,VALID,1007.08,VALID,0,VALID,95.3991,VALID,0,VALID,23.723,VALID,346,VALID,0.426562,
2010-03-12, 03:29:04,VALID,1007.06,VALID,0,VALID,95.3991,VALID,0,VALID,23.7017,VALID,344,VALID,0.324219,
2010-03-12, 03:30:04,VALID,1007.04,VALID,0,VALID,95.3915,VALID,0,VALID,23.723,VALID,328,VALID,0.343359,
2010-03-12, 03:31:04,VALID,1007.02,VALID,0,VALID,95.3915,VALID,0,VALID,23.7212,VALID,342,VALID,1.4207,
2010-03-12, 03:32:04,VALID,1007.03,VALID,0,VALID,95.4068,VALID,0,VALID,23.7017,VALID,356,VALID,0.838672,
2010-03-12, 03:33:04,VALID,1007.02,VALID,0,VALID,95.4297,VALID,0.100563,VALID,23.7017,VALID,23,VALID,0.735547,
2010-03-12, 03:34:04,VALID,1007.05,VALID,0,VALID,95.4068,VALID,0,VALID,23.723,VALID,356,VALID,0.309766,
2010-03-12, 03:35:04,VALID,1007.03,VALID,0,VALID,95.4068,VALID,0,VALID,23.7212,VALID,349,VALID,0.353516,
2010-03-12, 03:36:04,VALID,1007.03,VALID,0,VALID,95.3991,VALID,0,VALID,23.7212,VALID,349,VALID,0.188281,
2010-03-12, 03:37:04,VALID,1007.01,VALID,0,VALID,95.4068,VALID,0,VALID,23.7212,VALID,309,VALID,0.526563,
2010-03-12, 03:38:04,VALID,1007.01,VALID,0,VALID,95.4144,VALID,0,VALID,23.7017,VALID,301,VALID,0.342187,
2010-03-12, 03:39:04,VALID,1006.94,VALID,0,VALID,95.422,VALID,0,VALID,23.723,VALID,301,VALID,0.181641,
2010-03-12, 03:40:04,VALID,1006.92,VALID,0,VALID,95.4068,VALID,0,VALID,23.6823,VALID,303,VALID,0.466406,
2010-03-12, 03:41:04,VALID,1006.92,VALID,0,VALID,95.422,VALID,0,VALID,23.6823,VALID,317,VALID,0.327734,
2010-03-12, 03:42:04,VALID,1006.94,VALID,0,VALID,95.4144,VALID,0,VALID,23.6628,VALID,311,VALID,0.105469,
2010-03-12, 03:43:04,VALID,1006.94,VALID,0,VALID,95.4144,VALID,0,VALID,23.6628,VALID,314,VALID,0.0964844,
2010-03-12, 03:44:04,VALID,1006.92,VALID,0,VALID,95.422,VALID,0,VALID,23.6628,VALID,332,VALID,0.122656,
2010-03-12, 03:45:04,VALID,1006.93,VALID,0,VALID,95.4297,VALID,0,VALID,23.6628,VALID,323,VALID,0.277734,
2010-03-12, 03:46:04,VALID,1006.93,VALID,0,VALID,95.4373,VALID,0.100563,VALID,23.6628,VALID,331,VALID,0.366016,
2010-03-12, 03:47:04,VALID,1006.95,VALID,0,VALID,95.4144,VALID,0,VALID,23.6841,VALID,294,VALID,0.410547,
2010-03-12, 03:48:04,VALID,1006.96,VALID,0,VALID,95.422,VALID,0,VALID,23.6646,VALID,309,VALID,0.564844,
2010-03-12, 03:49:04,VALID,1006.95,VALID,0,VALID,95.4297,VALID,0.100563,VALID,23.6434,VALID,336,VALID,0.615234,
2010-03-12, 03:50:04,VALID,1006.94,VALID,0,VALID,95.4297,VALID,0,VALID,23.6628,VALID,340,VALID,0.25,
2010-03-12, 03:51:04,VALID,1006.95,VALID,0,VALID,95.4449,VALID,0,VALID,23.6434,VALID,351,VALID,0.623047,